Location: Hilton Head Island
(32.2163°N, 80.7526°W)
Time: 02:21:19
(UTC-04:00)

Vanguard 1 - Pass Details

Date: 25 February 2026
Orbit: 653 x 3818 km, 34.2° (Epoch: 9 March)

Event Time Altitude Azimuth Distance (km) Brightness Sun altitude
Rises 14:33:16 0° 260° (W) 3,734 13.6 40.3°
Reaches altitude 10° 14:35:22 10° 261° (W) 3,014 13.3 40.0°
Maximum altitude 14:42:56 86° 350° (N) 1,668 11.9 39.0°
Drops below altitude 10° 14:57:36 10° 80° (E) 5,508 13.6 36.8°
Sets 15:02:57 0° 82° (E) 6,988 14.0 36.0°
